Hourly Weather Plymouth

Today, 26 January, Tuesday

Time Temperature Precipitation Wind Pressure Humidity
00:00 +1°C° 0 mm 4 mps 761 mmHg 80%
01:00 +1°C° 0 mm 5 mps 761 mmHg 81%
02:00 +2°C° 0 mm 5 mps 761 mmHg 82%
03:00 +2°C° 0 mm 5 mps 761 mmHg 83%
04:00 +3°C° 0.1 mm 6 mps 760 mmHg 85%
05:00 +3°C° 0.1 mm 6 mps 760 mmHg 86%
06:00 +3°C° 0 mm 5 mps 760 mmHg 88%
07:00 +4°C° 0.6 mm 6 mps 760 mmHg 90%
08:00 +4°C° 0.6 mm 7 mps 759 mmHg 92%
09:00 +4°C° 0.6 mm 8 mps 759 mmHg 94%
10:00 +5°C° 0.5 mm 9 mps 758 mmHg 95%
11:00 +5°C° 0.5 mm 10 mps 758 mmHg 95%
12:00 +6°C° 0 mm 11 mps 758 mmHg 94%
13:00 +6°C° 0.3 mm 10 mps 757 mmHg 95%
14:00 +7°C° 0.3 mm 9 mps 757 mmHg 96%
15:00 +7°C° 0.3 mm 8 mps 756 mmHg 97%
16:00 +8°C° 0.1 mm 7 mps 756 mmHg 97%
17:00 +8°C° 0.1 mm 6 mps 756 mmHg 98%
18:00 +10°C° 0.1 mm 4 mps 756 mmHg 98%
19:00 +10°C° 0 mm 4 mps 756 mmHg 98%
20:00 +8°C° 0 mm 4 mps 756 mmHg 98%
21:00 +8°C° 0 mm 4 mps 756 mmHg 98%
22:00 +8°C° 0 mm 4 mps 757 mmHg 98%
23:00 +8°C° 0 mm 4 mps 757 mmHg 98%

Tomorrow, 27 January, Wednesday

Time Temperature Precipitation Wind Pressure Humidity
00:00 +8°C° 0 mm 4 mps 757 mmHg 98%
01:00 +8°C° 0 mm 5 mps 757 mmHg 97%
02:00 +9°C° 0 mm 5 mps 757 mmHg 97%
03:00 +9°C° 0 mm 6 mps 757 mmHg 96%
04:00 +9°C° 0 mm 5 mps 757 mmHg 96%
05:00 +8°C° 0 mm 5 mps 757 mmHg 96%
06:00 +8°C° 0 mm 4 mps 758 mmHg 96%
07:00 +8°C° 0 mm 4 mps 758 mmHg 96%
08:00 +8°C° 0 mm 5 mps 758 mmHg 96%
09:00 +9°C° 0 mm 5 mps 758 mmHg 97%
10:00 +10°C° 0 mm 4 mps 759 mmHg 95%
11:00 +11°C° 0 mm 4 mps 759 mmHg 94%
12:00 +11°C° 0 mm 4 mps 759 mmHg 93%
13:00 +11°C° 0.1 mm 3 mps 759 mmHg 94%
14:00 +11°C° 0.1 mm 3 mps 758 mmHg 96%
15:00 +11°C° 0.1 mm 3 mps 758 mmHg 97%
16:00 +11°C° 0.4 mm 4 mps 758 mmHg 98%
17:00 +11°C° 0.4 mm 4 mps 757 mmHg 98%
18:00 +11°C° 0.4 mm 4 mps 757 mmHg 98%
19:00 +10°C° 0.1 mm 5 mps 757 mmHg 98%
20:00 +10°C° 0.1 mm 6 mps 756 mmHg 97%
21:00 +11°C° 0.1 mm 7 mps 756 mmHg 97%
22:00 +10°C° 0.1 mm 8 mps 755 mmHg 97%
23:00 +10°C° 0.1 mm 8 mps 755 mmHg 97%

Day after tomorrow, 28 January, Thursday

Time Temperature Precipitation Wind Pressure Humidity
00:00 +10°C° 0.1 mm 9 mps 754 mmHg 97%
01:00 +11°C° 1.4 mm 9 mps 754 mmHg 96%
02:00 +11°C° 1.4 mm 9 mps 753 mmHg 96%
03:00 +11°C° 1.4 mm 9 mps 753 mmHg 96%
04:00 +11°C° 0.1 mm 9 mps 752 mmHg 95%
05:00 +11°C° 0.1 mm 10 mps 752 mmHg 94%
06:00 +11°C° 0.1 mm 10 mps 752 mmHg 94%
07:00 +11°C° 0 mm 9 mps 752 mmHg 93%
08:00 +11°C° 0 mm 9 mps 752 mmHg 93%
09:00 +11°C° 0 mm 9 mps 753 mmHg 92%
10:00 +11°C° 0 mm 9 mps 753 mmHg 90%
11:00 +12°C° 0 mm 9 mps 753 mmHg 88%
12:00 +12°C° 0 mm 9 mps 753 mmHg 86%
13:00 +12°C° 0 mm 9 mps 753 mmHg 85%
14:00 +12°C° 0 mm 8 mps 752 mmHg 85%
15:00 +12°C° 0 mm 8 mps 752 mmHg 84%
16:00 +11°C° 0.2 mm 8 mps 752 mmHg 88%
17:00 +11°C° 0.2 mm 8 mps 751 mmHg 92%
18:00 +10°C° 0.2 mm 8 mps 751 mmHg 96%
19:00 +10°C° 0.3 mm 8 mps 751 mmHg 94%
20:00 +10°C° 0.3 mm 8 mps 751 mmHg 92%
21:00 +10°C° 0.3 mm 8 mps 751 mmHg 90%
22:00 +9°C° 0 mm 8 mps 751 mmHg 91%
23:00 +8°C° 0 mm 7 mps 751 mmHg 92%

29 January, Friday

Time Temperature Precipitation Wind Pressure Humidity
00:00 +8°C° 0 mm 7 mps 751 mmHg 93%
01:00 +7°C° 0 mm 8 mps 751 mmHg 93%
02:00 +7°C° 0 mm 8 mps 751 mmHg 93%
03:00 +7°C° 0 mm 9 mps 751 mmHg 93%
04:00 +7°C° 0 mm 9 mps 751 mmHg 93%
05:00 +7°C° 0 mm 8 mps 751 mmHg 93%
06:00 +7°C° 0 mm 8 mps 751 mmHg 93%
07:00 +7°C° 0.1 mm 8 mps 751 mmHg 93%
08:00 +7°C° 0.1 mm 9 mps 752 mmHg 92%
09:00 +7°C° 0.1 mm 9 mps 752 mmHg 92%
10:00 +8°C° 0.1 mm 9 mps 752 mmHg 89%
11:00 +8°C° 0.1 mm 9 mps 752 mmHg 86%
12:00 +10°C° 0.1 mm 9 mps 752 mmHg 82%
13:00 +10°C° 0.2 mm 9 mps 752 mmHg 84%
14:00 +10°C° 0.2 mm 9 mps 751 mmHg 85%
15:00 +10°C° 0.2 mm 8 mps 751 mmHg 86%
16:00 +9°C° 0.1 mm 8 mps 750 mmHg 89%
17:00 +8°C° 0.1 mm 7 mps 749 mmHg 92%
18:00 +8°C° 0.1 mm 6 mps 749 mmHg 94%
19:00 +8°C° 1.6 mm 7 mps 747 mmHg 95%
20:00 +6°C° 1.6 mm 7 mps 746 mmHg 96%
21:00 +6°C° 1.6 mm 7 mps 744 mmHg 97%
22:00 +6°C° 3.1 mm 7 mps 743 mmHg 97%
23:00 +6°C° 3.1 mm 7 mps 742 mmHg 97%

30 January, Saturday

Time Temperature Precipitation Wind Pressure Humidity
00:00 +8°C° 3.1 mm 7 mps 741 mmHg 97%
01:00 +8°C° 1.2 mm 6 mps 740 mmHg 97%
02:00 +8°C° 1.2 mm 5 mps 739 mmHg 97%
03:00 +8°C° 1.2 mm 4 mps 739 mmHg 97%
04:00 +9°C° 0.2 mm 3 mps 738 mmHg 96%
05:00 +8°C° 0.2 mm 2 mps 738 mmHg 95%
06:00 +8°C° 0.2 mm 2 mps 737 mmHg 95%
07:00 +8°C° 0.1 mm 3 mps 738 mmHg 94%
08:00 +7°C° 0.1 mm 5 mps 739 mmHg 93%
09:00 +7°C° 0.1 mm 6 mps 740 mmHg 92%
10:00 +6°C° 0.2 mm 8 mps 742 mmHg 91%
11:00 +6°C° 0.2 mm 9 mps 744 mmHg 89%
12:00 +6°C° 0.2 mm 10 mps 745 mmHg 88%
13:00 +5°C° 0 mm 10 mps 747 mmHg 87%
14:00 +5°C° 0 mm 10 mps 748 mmHg 85%
15:00 +3°C° 0 mm 9 mps 749 mmHg 84%
16:00 +2°C° 0 mm 9 mps 751 mmHg 84%
17:00 +1°C° 0 mm 8 mps 752 mmHg 85%
18:00 0°C° 0 mm 7 mps 754 mmHg 85%
19:00 +1°C° 0 mm 6 mps 755 mmHg 84%
20:00 -1°C° 0 mm 6 mps 756 mmHg 84%
21:00 -1°C° 0 mm 5 mps 757 mmHg 83%
22:00 -1°C° 0 mm 5 mps 757 mmHg 83%
23:00 -1°C° 0 mm 5 mps 758 mmHg 83%

31 January, Sunday

Time Temperature Precipitation Wind Pressure Humidity
00:00 -1°C° 0 mm 4 mps 758 mmHg 82%
01:00 0°C° 0 mm 5 mps 757 mmHg 82%
02:00 +1°C° 0 mm 5 mps 757 mmHg 81%
03:00 +1°C° 0 mm 6 mps 756 mmHg 81%
04:00 +2°C° 0.1 mm 6 mps 755 mmHg 81%
05:00 +2°C° 0.1 mm 7 mps 754 mmHg 81%
06:00 +2°C° 0.1 mm 8 mps 753 mmHg 82%
07:00 +2°C° 1.2 mm 9 mps 752 mmHg 86%
08:00 +2°C° 1.2 mm 10 mps 751 mmHg 91%
09:00 +2°C° 1.2 mm 11 mps 750 mmHg 95%
10:00 +2°C° 2.7 mm 10 mps 749 mmHg 96%
11:00 +3°C° 2.7 mm 10 mps 748 mmHg 96%
12:00 +3°C° 2.7 mm 9 mps 747 mmHg 97%
13:00 +5°C° 0.8 mm 8 mps 747 mmHg 96%
14:00 +6°C° 0.8 mm 8 mps 746 mmHg 94%
15:00 +8°C° 0.8 mm 7 mps 745 mmHg 93%
16:00 +7°C° 0.4 mm 8 mps 746 mmHg 94%
17:00 +7°C° 0.4 mm 8 mps 746 mmHg 94%
18:00 +7°C° 0.4 mm 8 mps 746 mmHg 95%
19:00 +7°C° 0 mm 9 mps 746 mmHg 93%
20:00 +7°C° 0 mm 10 mps 747 mmHg 91%
21:00 +8°C° 0 mm 10 mps 747 mmHg 90%
22:00 +7°C° 0 mm 10 mps 748 mmHg 89%
23:00 +7°C° 0 mm 9 mps 748 mmHg 89%
Show more